Weather History for Dublin, GA

Change the Weather History Date:

Saturday, October 6, 2012

  Actual Average Record
Temperature  
Mean Temperature 76 °F -  
Max Temperature 87 °F 82 °F 100 °F (1954)
Min Temperature 64 °F 52 °F 37 °F (1974)
Cooling Degree Days 10    
Growing Degree Days 26 (Base 50)    
Moisture  
Dew Point 64 °F    
Average Humidity 75    
Maximum Humidity 100    
Minimum Humidity 35    
Precipitation  
Precipitation 0.00 in - - ()
Sea Level Pressure  
Sea Level Pressure 30.00 in    
Wind  
Wind Speed 2 mph (NW)    
Max Wind Speed 10 mph    
Max Gust Speed -    
Visibility 8 miles    
Events      
Averages and records for this station are not official NWS values.
T = Trace of Precipitation, MM = Missing Value Source: NWS Daily Summary

Daily Weather History Graph

Daily Weather History Graph

Search for Another Location

Airport:

Trip Planner

Search our weather history database for the weather conditions in past years. The results will help you decide how hot, cold, wet, or windy it might be!

Date:

Astronomy

Oct. 06, 2012 Rise Set
Actual Time 7:29 AM EDT 7:09 PM EDT
Civil Twilight 7:05 AM EDT 7:34 PM EDT
Nautical Twilight 6:36 AM EDT 8:02 PM EDT
Astronomical Twilight 6:08 AM EDT 8:31 PM EDT
Moon 11:38 PM EDT (10/6) 1:08 PM EDT (10/6)
Length of Visible Light 12h 28m
Length of Day
11h 39m
Waning Gibbous, 65% of the Moon is Illuminated
Oct 6
Waning Gibbous
Oct 8
Last Quarter
Oct 15
New
Oct 21
First Quarter
Oct 29
Full

Hourly Weather History & Observations

Time (EDT) Temp. Heat Index Dew Point Humidity Pressure Visibility Wind Dir Wind Speed Gust Speed Precip Events Conditions
12:15 AM 68.0 °F - 68.0 °F 100% 30.06 in 5.0 mi Calm Calm - N/A   Mostly Cloudy
12:35 AM 66.2 °F - 66.2 °F 100% 30.05 in 4.0 mi Calm Calm - N/A   Scattered Clouds
12:55 AM 66.2 °F - 66.2 °F 100% 30.06 in 5.0 mi Calm Calm - N/A   Mostly Cloudy
1:15 AM 66.2 °F - 66.2 °F 100% 30.05 in 5.0 mi Calm Calm - N/A   Scattered Clouds
1:35 AM 66.2 °F - 66.2 °F 100% 30.05 in 5.0 mi Calm Calm - N/A   Clear
1:55 AM 64.4 °F - 64.4 °F 100% 30.05 in 4.0 mi Calm Calm - N/A   Scattered Clouds
2:15 AM 66.2 °F - 66.2 °F 100% 30.05 in 5.0 mi Calm Calm - N/A   Mostly Cloudy
2:35 AM 66.2 °F - 66.2 °F 100% 30.04 in 4.0 mi Calm Calm - N/A   Mostly Cloudy
2:55 AM 66.2 °F - 66.2 °F 100% 30.04 in 5.0 mi Calm Calm - N/A   Mostly Cloudy
3:15 AM 68.0 °F - 68.0 °F 100% 30.04 in 5.0 mi Calm Calm - N/A   Overcast
3:35 AM 68.0 °F - 68.0 °F 100% 30.02 in 7.0 mi Calm Calm - N/A   Overcast
3:55 AM 68.0 °F - 68.0 °F 100% 30.02 in 5.0 mi Calm Calm - N/A   Overcast
4:15 AM 68.0 °F - 68.0 °F 100% 30.02 in 4.0 mi Calm Calm - N/A   Mostly Cloudy
4:35 AM 66.2 °F - 66.2 °F 100% 30.01 in 4.0 mi Calm Calm - N/A   Scattered Clouds
4:55 AM 66.2 °F - 66.2 °F 100% 30.01 in 4.0 mi Calm Calm - N/A   Mostly Cloudy
5:35 AM 66.2 °F - 66.2 °F 100% 30.01 in 4.0 mi Calm Calm - N/A   Overcast
5:55 AM 66.2 °F - 66.2 °F 100% 30.01 in 5.0 mi Calm Calm - N/A   Mostly Cloudy
6:15 AM 66.2 °F - 66.2 °F 100% 30.02 in 5.0 mi Calm Calm - N/A   Mostly Cloudy
6:35 AM 66.2 °F - 66.2 °F 100% 30.02 in 4.0 mi Calm Calm - N/A   Mostly Cloudy
6:55 AM 64.4 °F - 64.4 °F 100% 30.02 in 4.0 mi Calm Calm - N/A   Scattered Clouds
7:15 AM 64.4 °F - 64.4 °F 100% 30.03 in 4.0 mi NNW 3.5 mph - N/A   Mostly Cloudy
7:55 AM 66.2 °F - 66.2 °F 100% 30.04 in 5.0 mi Calm Calm - N/A   Overcast
8:15 AM 68.0 °F - 68.0 °F 100% 30.04 in 5.0 mi Calm Calm - N/A   Mostly Cloudy
8:35 AM 68.0 °F - 68.0 °F 100% 30.04 in 10.0 mi NNW 3.5 mph - N/A   Mostly Cloudy
8:55 AM 69.8 °F - 68.0 °F 94% 30.05 in 10.0 mi Calm Calm - N/A   Scattered Clouds
9:15 AM 71.6 °F - 69.8 °F 94% 30.05 in 10.0 mi Calm Calm - N/A   Scattered Clouds
9:35 AM 73.4 °F - 66.2 °F 78% 30.05 in 10.0 mi NW 3.5 mph - N/A   Clear
9:55 AM 75.2 °F - 64.4 °F 69% 30.05 in 10.0 mi NNW 3.5 mph - N/A   Clear
10:15 AM 77.0 °F - 64.4 °F 65% 30.05 in 10.0 mi North 3.5 mph - N/A   Clear
10:35 AM 77.0 °F - 64.4 °F 65% 30.04 in 10.0 mi North 4.6 mph - N/A   Clear
10:55 AM 78.8 °F - 64.4 °F 61% 30.04 in 10.0 mi NNW 6.9 mph - N/A   Clear
11:15 AM 80.6 °F 82.3 °F 64.4 °F 58% 30.04 in 10.0 mi NW 4.6 mph - N/A   Clear
11:35 AM 80.6 °F 82.3 °F 64.4 °F 58% 30.04 in 10.0 mi North 4.6 mph - N/A   Clear
11:55 AM 80.6 °F 81.8 °F 62.6 °F 54% 30.03 in 10.0 mi NW 5.8 mph - N/A   Clear
12:15 PM 82.4 °F 82.9 °F 60.8 °F 48% 30.03 in 10.0 mi NNW 3.5 mph - N/A   Scattered Clouds
12:35 PM 82.4 °F 82.9 °F 60.8 °F 48% 30.02 in 10.0 mi WNW 6.9 mph - N/A   Scattered Clouds
12:55 PM 82.4 °F 82.9 °F 60.8 °F 48% 30.01 in 10.0 mi NW 8.1 mph - N/A   Scattered Clouds
1:15 PM 84.2 °F 83.8 °F 59.0 °F 42% 30.00 in 10.0 mi North 4.6 mph - N/A   Scattered Clouds
1:35 PM 86.0 °F 85.4 °F 59.0 °F 40% 29.99 in 10.0 mi NW 3.5 mph - N/A   Mostly Cloudy
1:55 PM 84.2 °F 83.8 °F 59.0 °F 42% 29.99 in 10.0 mi West 6.9 mph - N/A   Scattered Clouds
2:15 PM 84.2 °F 83.8 °F 59.0 °F 42% 29.98 in 10.0 mi WNW 6.9 mph - N/A   Scattered Clouds
2:35 PM 86.0 °F 85.4 °F 59.0 °F 40% 29.96 in 10.0 mi NW 6.9 mph - N/A   Mostly Cloudy
2:55 PM 87.8 °F 87.1 °F 59.0 °F 38% 29.95 in 10.0 mi WNW 8.1 mph - N/A   Mostly Cloudy
3:15 PM 86.0 °F 84.9 °F 57.2 °F 37% 29.95 in 10.0 mi WNW 8.1 mph - N/A   Scattered Clouds
3:35 PM 86.0 °F 85.4 °F 59.0 °F 40% 29.94 in 10.0 mi West 5.8 mph - N/A   Scattered Clouds
3:55 PM 86.0 °F 84.9 °F 57.2 °F 37% 29.93 in 10.0 mi West 6.9 mph - N/A   Clear
4:15 PM 86.0 °F 84.9 °F 57.2 °F 37% 29.93 in 10.0 mi West 10.4 mph - N/A   Scattered Clouds
4:35 PM 86.0 °F 84.5 °F 55.4 °F 35% 29.93 in 10.0 mi West 3.5 mph - N/A   Scattered Clouds
4:55 PM 86.0 °F 84.9 °F 57.2 °F 37% 29.93 in 10.0 mi West 5.8 mph - N/A   Clear
5:15 PM 86.0 °F 84.5 °F 55.4 °F 35% 29.92 in 10.0 mi WNW 5.8 mph - N/A   Clear
5:35 PM 86.0 °F 84.9 °F 57.2 °F 37% 29.92 in 10.0 mi West 4.6 mph - N/A   Clear
5:55 PM 84.2 °F 83.0 °F 55.4 °F 37% 29.93 in 10.0 mi West 4.6 mph - N/A   Clear
6:15 PM 84.2 °F 83.0 °F 55.4 °F 37% 29.93 in 10.0 mi Calm Calm - N/A   Clear
6:35 PM 82.4 °F 82.5 °F 59.0 °F 45% 29.93 in 10.0 mi Calm Calm - N/A   Clear
6:55 PM 80.6 °F 81.5 °F 60.8 °F 51% 29.94 in 10.0 mi Calm Calm - N/A   Clear
7:15 PM 77.0 °F - 62.6 °F 61% 29.94 in 10.0 mi Calm Calm - N/A   Clear
7:35 PM 71.6 °F - 66.2 °F 83% 29.95 in 10.0 mi Calm Calm - N/A   Clear
7:55 PM 69.8 °F - 68.0 °F 94% 29.96 in 10.0 mi Calm Calm - N/A   Clear
8:15 PM 69.8 °F - 68.0 °F 94% 29.96 in 10.0 mi Calm Calm - N/A   Clear
8:35 PM 69.8 °F - 68.0 °F 94% 29.96 in 10.0 mi Calm Calm - N/A   Clear
8:55 PM 68.0 °F - 68.0 °F 100% 29.97 in 10.0 mi Calm Calm - N/A   Clear
9:15 PM 68.0 °F - 68.0 °F 100% 29.97 in 10.0 mi Calm Calm - N/A   Clear
9:35 PM 68.0 °F - 68.0 °F 100% 29.97 in 10.0 mi Calm Calm - N/A   Clear
9:55 PM 66.2 °F - 66.2 °F 100% 29.98 in 7.0 mi Calm Calm - N/A   Clear
10:15 PM 66.2 °F - 66.2 °F 100% 29.99 in 10.0 mi Calm Calm - N/A   Clear